#timestamp,LO_Frequency,Hit,StdDev 
1458651615.6,286046996.3,N
1458651635.4,286046995.5,N
1458651655.2,286046995.3,N
1458651675.0,286046996.1,N
1458651676.0,286046996.1,N
1458651695.8,286046993.6,N
1458651715.6,286046991.7,N
1458651735.4,286046990.1,N
1458651755.3,286046992.2,N
1458651775.1,286046991.0,N
1458651795.8,286046987.9,N
1458651815.7,286046988.3,N
1458651835.5,286046989.1,N
1458651855.3,286046989.8,N
1458651875.2,286046989.6,N
1458651895.9,286046985.4,N
1458651915.7,286046985.4,N
1458651935.6,286046987.9,N
1458651955.4,286046987.9,N
1458651975.2,286046983.9,Y
1458651995.1,286046988.9,P
1458651996.0,286046988.9,P
1458652015.8,286046994.2,N
1458652035.6,286046992.3,N
1458652055.5,286046996.4,N
1458652075.3,286046997.4,N
1458652095.1,286046999.6,N
1458652115.9,286046998.4,N
1458652135.7,286046997.2,N
1458652155.5,286046995.7,N
1458652175.3,286046997.3,N
1458652195.2,286047000.0,N
1458652215.0,286047001.2,N
1458652215.9,286047001.2,N
1458652235.7,286046998.7,N
1458652255.6,286046995.7,N
1458652275.4,286046999.1,N
1458652295.2,286047001.2,N
1458652315.1,286046998.7,N
1458652316.0,286046998.7,N
1458652335.8,286047004.3,N
1458652355.6,286047001.5,N
1458652375.5,286047005.5,N
1458652395.3,286047006.4,N
1458652415.1,286047006.1,N
1458652435.9,286047007.9,N
1458652455.7,286047008.6,N
1458652475.5,286047007.9,N
1458652495.3,286047008.5,N
1458652515.2,286047007.9,N
1458652535.0,286047007.4,N
1458652535.9,286047007.4,N
1458652555.7,286047003.8,N
1458652575.6,286047003.0,N
1458652595.4,286047007.3,N
1458652615.2,286047007.9,N
1458652635.1,286047008.2,N
1458652636.0,286047008.2,N
1458652655.8,286047007.9,N
1458652675.6,286047008.4,N
1458652695.5,286047011.2,N
1458652715.3,286047014.3,Y
1458652735.1,286047007.0,P
1458652755.9,286047007.1,P
1458652775.7,286047007.1,P
1458652795.5,286047006.9,Y
1458652815.4,286046999.0,P
1458652835.2,286046997.4,N
1458652855.0,286046996.8,N
1458652855.9,286046996.8,N
1458652875.8,286046999.5,N
1458652895.6,286046998.9,N
1458652915.4,286046993.8,N
1458652935.3,286046993.5,N
1458652955.1,286046991.2,N
1458652956.0,286046991.2,N
1458652975.8,286046991.5,N
1458652995.7,286046991.3,N
1458653015.5,286046989.2,N
1458653035.3,286046986.5,Y
1458653055.2,286046990.2,P
1458653075.9,286046991.6,P
1458653095.7,286046991.2,P
1458653115.6,286046990.4,Y
1458653135.4,286046995.1,P
1458653155.2,286046993.6,P
1458653175.1,286046996.4,N
1458653176.0,286046996.4,N
1458653195.8,286046994.1,Y
1458653215.6,286046998.6,P
1458653235.5,286046997.7,N
1458653255.3,286046994.5,P
1458653275.1,286046993.0,Y
1458653295.9,286046993.3,P
1458653315.7,286046997.0,N
1458653335.5,286046996.5,N
1458653355.4,286046997.2,N
1458653375.2,286046998.3,N
1458653395.0,286047002.1,N
1458653395.9,286047002.1,N
1458653415.7,286047000.0,N
1458653435.6,286047002.0,N
1458653455.4,286046999.9,N
1458653475.2,286047000.4,N
1458653495.1,286046999.2,N
1458653496.0,286046999.2,N
1458653515.8,286046997.0,N
1458653535.6,286046997.7,N
1458653555.5,286046994.6,N
1458653575.3,286046994.6,N
1458653595.1,286046994.0,N
1458653615.9,286046996.4,N
1458653635.7,286046995.7,N
1458653655.5,286046994.3,N
1458653675.4,286046991.3,Y
1458653695.2,286046996.0,P
1458653715.0,286046996.4,P
1458653715.9,286046996.4,P
1458653735.8,286046994.2,Y
1458653755.6,286047000.7,P
1458653775.4,286046998.6,N
1458653795.3,286046999.6,N
1458653815.1,286046998.0,N
1458653816.0,286046998.0,N
1458653835.8,286046992.3,Y
1458653855.7,286046992.6,P
1458653875.5,286046992.8,N
1458653895.3,286046993.0,N
1458653915.2,286046988.5,Y
1458653935.9,286046994.2,P
1458653955.7,286046991.7,P
1458653975.6,286046992.6,P
1458653995.4,286046991.7,Y
1458654015.2,286047003.8,P
1458654035.1,286047005.9,N
1458654036.0,286047005.9,N
1458654055.8,286047009.0,N
1458654075.6,286047007.4,N
1458654095.5,286047007.2,N
1458654115.3,286047005.1,N
1458654135.1,286047003.0,N
1458654155.8,286047004.4,N
1458654175.7,286047005.4,N
1458654195.5,286047005.1,N
1458654215.3,286046999.8,N
1458654235.2,286046999.7,N
1458654255.9,286047000.3,N
1458654275.7,286046998.1,N
1458654295.6,286047001.1,N
1458654315.4,286047001.7,N
1458654335.2,286047007.3,N
1458654355.1,286047008.1,N
1458654356.0,286047008.1,N
1458654375.8,286047012.0,Y
1458654395.6,286047006.1,P
1458654415.5,286047007.6,P
1458654435.3,286047007.9,P
1458654455.1,286047007.7,Y
1458654475.9,286047004.2,P
1458654495.7,286047003.5,P
1458654515.5,286047007.5,P
1458654535.4,286047006.4,Y
1458654555.2,286047004.1,P
1458654575.0,286047007.5,P
1458654575.9,286047007.5,P
1458654595.8,286047004.7,Y
1458654615.6,286047001.7,P
1458654635.4,286047007.7,P
1458654655.3,286047014.0,P
1458654675.1,286047010.3,N
1458654676.0,286047010.3,N
1458654695.8,286047008.1,N
1458654715.7,286047012.4,Y
1458654735.5,286047003.1,P
1458654755.3,286047005.9,N
1458654775.2,286047007.5,P
1458654795.9,286047000.1,N
1458654815.7,286047001.4,N
1458654835.6,286047007.4,N
1458654855.4,286047008.3,N
1458654875.2,286047010.7,Y
1458654895.1,286047004.1,P
1458654896.0,286047004.1,P
1458654915.8,286047005.0,P
1458654935.6,286047011.8,Y
1458654955.5,286047001.5,P
1458654975.3,286047002.2,N
1458654995.1,286047002.8,N
1458655015.9,286047000.6,N
1458655035.7,286046998.1,N
1458655055.5,286046999.5,N
1458655075.3,286046996.3,N
1458655095.2,286046992.6,N
1458655115.0,286046990.5,N
1458655115.9,286046990.5,N
1458655135.7,286046994.7,N
1458655155.6,286046997.1,N
1458655175.4,286046995.9,N
1458655195.2,286046994.3,N
